contact:dominique.lefevre@mio.osupytheas.fr, maurice.libes@osupytheas.fr, didier.mallarino@osupytheas.fr
Project:EMSO http://www.emso-fr.org/EMSO-France
Depth: 2436.0 m
Title:EMSO Ligure Ouest : Data MII capteur AQUADOPP
Date,Latitude,Longitude,X_East,Y_North,Z_Up,Amplitude_X,Amplitude_Y,Amplitude_Z,Batterie,SoundSpeed,Heading,Pitch,Roll,Pressure,TIS,Speed,Direction
, degrees North, degrees East, m.s-1, m.s-1,m.s-1, 1, 1, 1, Volt, m.s-1, degree, degree, degree, dbar, degree_C, m.s-1, degree
2020-08-06T00:04:02,42.805,6.029,-0.075,0.028,-0.008,102.0,106.0,100.0,13.3,1505.3,328.4,-0.7,1.8,2470.477,13.31,0.08,290.5
2020-08-06T00:07:02,42.805,6.029,-0.07,0.016,0.026,103.0,107.0,100.0,13.4,1505.3,326.6,-0.7,1.8,2470.423,13.31,0.071,282.9
2020-08-06T00:10:03,42.805,6.029,-0.057,0.003,-0.021,103.0,107.0,101.0,13.3,1505.3,325.8,-0.7,1.8,2470.465,13.32,0.057,273.0
2020-08-06T00:13:03,42.805,6.029,-0.042,0.005,0.01,103.0,109.0,100.0,13.3,1505.3,324.9,-0.7,1.8,2470.445,13.32,0.042,276.8
2020-08-06T00:16:03,42.805,6.029,-0.063,0.009,0.004,102.0,108.0,100.0,13.4,1505.3,324.2,-0.7,1.8,2470.427,13.32,0.063,278.1
2020-08-06T00:19:03,42.805,6.029,-0.06,0.014,-0.003,102.0,107.0,100.0,13.4,1505.3,324.3,-0.7,1.8,2470.455,13.33,0.061,283.1
2020-08-06T00:22:02,42.805,6.029,-0.054,0.015,0.036,103.0,108.0,99.0,13.4,1505.3,327.3,-0.7,1.8,2470.383,13.32,0.056,285.5
2020-08-06T00:25:02,42.805,6.029,-0.045,0.004,-0.022,103.0,108.0,100.0,13.3,1505.3,323.3,-0.7,1.8,2470.41,13.32,0.045,275.1
2020-08-06T00:28:03,42.805,6.029,-0.09,0.012,0.005,102.0,107.0,100.0,13.3,1505.3,324.6,-0.7,1.8,2470.418,13.32,0.09,277.6
2020-08-06T00:31:03,42.805,6.029,-0.047,0.012,-0.018,103.0,106.0,100.0,13.4,1505.3,326.7,-0.7,1.9,2470.389,13.33,0.048,284.3
2020-08-06T00:34:03,42.805,6.029,-0.076,0.031,-0.046,103.0,106.0,101.0,13.4,1505.3,326.8,-0.7,1.8,2470.369,13.33,0.082,292.2
2020-08-06T00:37:02,42.805,6.029,-0.067,0.014,0.018,103.0,108.0,101.0,13.4,1505.3,328.5,-0.7,1.8,2470.38,13.33,0.068,281.8
2020-08-06T00:40:03,42.805,6.029,-0.087,0.029,-0.005,104.0,109.0,100.0,13.4,1505.3,324.9,-0.7,1.8,2470.392,13.33,0.091,288.4
2020-08-06T00:43:03,42.805,6.029,-0.078,0.014,-0.033,103.0,108.0,100.0,13.4,1505.3,327.5,-0.7,1.8,2470.407,13.33,0.079,280.2
2020-08-06T00:46:03,42.805,6.029,-0.058,0.023,-0.012,103.0,108.0,100.0,13.4,1505.3,327.0,-0.7,1.8,2470.362,13.33,0.062,291.6
2020-08-06T00:49:02,42.805,6.029,-0.073,0.013,-0.001,103.0,107.0,100.0,13.4,1505.3,327.7,-0.7,1.9,2470.381,13.33,0.074,280.1
2020-08-06T00:52:02,42.805,6.029,-0.062,0.02,-0.02,102.0,108.0,100.0,13.4,1505.3,323.8,-0.7,1.9,2470.388,13.33,0.065,287.9
2020-08-06T00:55:03,42.805,6.029,-0.064,0.015,-0.015,103.0,109.0,101.0,13.4,1505.3,326.1,-0.7,1.8,2470.4,13.33,0.065,283.2
2020-08-06T00:58:03,42.805,6.029,-0.058,0.015,-0.007,103.0,109.0,100.0,13.4,1505.3,324.2,-0.7,1.8,2470.385,13.32,0.059,284.5
2020-08-06T01:04:02,42.805,6.029,-0.045,-0.006,-0.054,104.0,107.0,101.0,13.4,1505.3,324.7,-0.7,1.8,2470.36,13.31,0.045,262.4
2020-08-06T01:07:03,42.805,6.029,-0.054,0.01,-0.001,102.0,107.0,101.0,13.3,1505.3,326.6,-0.7,1.9,2470.411,13.31,0.054,280.5
2020-08-06T01:10:03,42.805,6.029,-0.056,0.006,0.007,102.0,107.0,100.0,13.4,1505.3,325.6,-0.7,1.9,2470.409,13.32,0.056,276.1
2020-08-06T01:13:02,42.805,6.029,-0.057,0.027,0.004,103.0,106.0,101.0,13.3,1505.3,326.3,-0.7,1.8,2470.368,13.32,0.063,295.3
2020-08-06T01:16:02,42.805,6.029,-0.054,0.017,-0.028,104.0,108.0,100.0,13.4,1505.3,325.0,-0.7,1.8,2470.383,13.32,0.056,287.5
2020-08-06T01:19:03,42.805,6.029,-0.07,0.022,-0.004,101.0,108.0,102.0,13.4,1505.3,326.6,-0.7,1.8,2470.39,13.32,0.073,287.4
2020-08-06T01:22:02,42.805,6.029,-0.088,0.003,-0.043,103.0,107.0,100.0,13.3,1505.3,326.6,-0.7,1.9,2470.382,13.32,0.088,272.0
2020-08-06T01:25:03,42.805,6.029,-0.082,0.002,-0.026,102.0,109.0,100.0,13.4,1505.3,323.4,-0.7,1.8,2470.371,13.32,0.082,271.4
2020-08-06T01:28:03,42.805,6.029,-0.026,0.005,-0.001,103.0,108.0,100.0,13.4,1505.3,327.3,-0.7,1.8,2470.345,13.33,0.026,280.9
2020-08-06T01:31:02,42.805,6.029,-0.055,0.009,-0.029,103.0,107.0,100.0,13.4,1505.3,326.0,-0.7,1.8,2470.385,13.33,0.055,279.3
2020-08-06T01:34:03,42.805,6.029,-0.042,0.016,-0.009,104.0,107.0,100.0,13.4,1505.3,327.7,-0.7,1.8,2470.338,13.33,0.044,290.9
2020-08-06T01:37:02,42.805,6.029,-0.08,0.027,-0.048,103.0,108.0,100.0,13.4,1505.3,324.6,-0.7,1.8,2470.321,13.33,0.084,288.6
2020-08-06T01:40:02,42.805,6.029,-0.056,0.031,-0.006,104.0,107.0,101.0,13.4,1505.3,325.0,-0.7,1.9,2470.341,13.33,0.064,299.0
2020-08-06T01:43:03,42.805,6.029,-0.038,0.011,-0.007,103.0,108.0,100.0,13.4,1505.3,324.2,-0.7,1.9,2470.361,13.33,0.039,286.1
2020-08-06T01:46:03,42.805,6.029,-0.049,0.012,-0.009,103.0,107.0,102.0,13.4,1505.3,324.3,-0.7,1.8,2470.333,13.33,0.05,283.8
2020-08-06T01:49:03,42.805,6.029,-0.066,0.035,-0.002,103.0,107.0,101.0,13.4,1505.3,327.1,-0.7,1.8,2470.35,13.33,0.074,297.9
2020-08-06T01:52:02,42.805,6.029,-0.044,0.026,0.02,103.0,107.0,101.0,13.4,1505.3,327.6,-0.7,1.8,2470.317,13.33,0.051,300.6
2020-08-06T01:55:03,42.805,6.029,-0.059,0.018,0.0,103.0,109.0,100.0,13.4,1505.3,325.1,-0.7,1.8,2470.337,13.33,0.061,287.0
2020-08-06T01:58:03,42.805,6.029,-0.056,0.017,-0.037,103.0,109.0,100.0,13.4,1505.3,323.5,-0.7,1.8,2470.349,13.33,0.058,286.9
2020-08-06T02:04:02,42.805,6.029,-0.06,0.009,0.004,102.0,108.0,100.0,13.4,1505.3,327.2,-0.7,1.8,2470.39,13.31,0.06,278.5
2020-08-06T02:07:02,42.805,6.029,-0.073,0.004,-0.03,103.0,108.0,100.0,13.3,1505.3,323.4,-0.7,1.9,2470.352,13.31,0.073,273.1
2020-08-06T02:10:03,42.805,6.029,-0.048,0.025,0.01,103.0,107.0,100.0,13.4,1505.3,327.7,-0.7,1.8,2470.337,13.32,0.054,297.5
2020-08-06T02:13:03,42.805,6.029,-0.052,-0.003,-0.049,103.0,106.0,102.0,13.4,1505.3,325.6,-0.7,1.8,2470.274,13.32,0.052,266.7
2020-08-06T02:16:02,42.805,6.029,-0.067,0.027,-0.015,102.0,107.0,100.0,13.4,1505.3,328.1,-0.7,1.8,2470.328,13.32,0.072,291.9
2020-08-06T02:19:03,42.805,6.029,-0.082,0.021,0.011,104.0,110.0,99.0,13.4,1505.3,326.5,-0.7,1.8,2470.335,13.32,0.084,284.4
2020-08-06T02:22:02,42.805,6.029,-0.055,0.028,-0.01,102.0,108.0,100.0,13.4,1505.3,326.4,-0.7,1.8,2470.328,13.33,0.061,297.0
2020-08-06T02:25:03,42.805,6.029,-0.095,0.034,-0.02,103.0,108.0,99.0,13.3,1505.3,327.2,-0.7,1.8,2470.338,13.32,0.1,289.7
2020-08-06T02:28:03,42.805,6.029,-0.048,0.025,0.035,102.0,108.0,101.0,13.4,1505.3,327.6,-0.7,1.8,2470.353,13.33,0.054,297.5
2020-08-06T02:31:02,42.805,6.029,-0.039,0.011,-0.01,102.0,108.0,101.0,13.4,1505.3,323.3,-0.7,1.8,2470.324,13.33,0.04,285.7
2020-08-06T02:34:03,42.805,6.029,-0.054,0.024,-0.034,104.0,107.0,100.0,13.4,1505.3,325.2,-0.7,1.8,2470.316,13.33,0.059,294.0
2020-08-06T02:37:02,42.805,6.029,-0.054,0.022,0.002,104.0,110.0,101.0,13.4,1505.3,326.8,-0.7,1.8,2470.329,13.33,0.058,292.2
2020-08-06T02:40:02,42.805,6.029,-0.036,0.007,0.004,103.0,109.0,102.0,13.4,1505.3,325.5,-0.7,1.8,2470.331,13.33,0.036,281.0
2020-08-06T02:43:03,42.805,6.029,-0.055,0.026,0.003,104.0,108.0,101.0,13.4,1505.3,326.4,-0.7,1.8,2470.309,13.33,0.06,295.3
2020-08-06T02:46:03,42.805,6.029,-0.037,0.013,0.0,105.0,107.0,102.0,13.4,1505.3,325.3,-0.7,1.8,2470.3,13.33,0.039,289.4
2020-08-06T02:49:03,42.805,6.029,-0.033,-0.007,0.007,103.0,107.0,100.0,13.3,1505.3,327.9,-0.7,1.8,2470.3,13.33,0.033,258.0
2020-08-06T02:52:02,42.805,6.029,-0.053,0.015,0.003,103.0,108.0,102.0,13.4,1505.3,326.8,-0.7,1.8,2470.3,13.33,0.055,285.8
2020-08-06T02:55:03,42.805,6.029,-0.074,0.007,-0.035,104.0,106.0,101.0,13.3,1505.3,326.9,-0.7,1.9,2470.305,13.33,0.074,275.4
2020-08-06T02:58:02,42.805,6.029,-0.061,0.016,-0.005,103.0,107.0,101.0,13.4,1505.3,328.1,-0.7,1.8,2470.288,13.33,0.063,284.7
2020-08-06T03:04:02,42.805,6.029,-0.071,0.001,-0.067,103.0,109.0,100.0,13.4,1505.3,325.1,-0.8,1.8,2470.367,13.31,0.071,270.8
2020-08-06T03:07:02,42.805,6.029,-0.044,0.018,0.017,104.0,107.0,101.0,13.3,1505.3,325.4,-0.7,1.8,2470.315,13.31,0.047,292.2
2020-08-06T03:10:03,42.805,6.029,-0.08,0.017,-0.033,103.0,108.0,100.0,13.4,1505.3,324.0,-0.7,1.8,2470.306,13.32,0.081,282.0
2020-08-06T03:13:03,42.805,6.029,-0.056,0.023,-0.01,104.0,108.0,100.0,13.4,1505.3,325.6,-0.7,1.8,2470.341,13.32,0.06,292.3
2020-08-06T03:16:03,42.805,6.029,-0.072,0.011,-0.054,103.0,107.0,102.0,13.4,1505.3,327.4,-0.7,1.8,2470.303,13.32,0.072,278.7
2020-08-06T03:19:03,42.805,6.029,-0.036,0.008,0.0,104.0,109.0,101.0,13.4,1505.3,328.2,-0.7,1.8,2470.311,13.32,0.036,282.5
2020-08-06T03:22:02,42.805,6.029,-0.036,0.008,-0.021,104.0,109.0,100.0,13.3,1505.3,324.8,-0.7,1.8,2470.333,13.32,0.036,282.5
2020-08-06T03:25:02,42.805,6.029,-0.057,0.018,-0.002,103.0,108.0,101.0,13.3,1505.3,324.6,-0.7,1.8,2470.319,13.33,0.059,287.5
2020-08-06T03:28:03,42.805,6.029,-0.06,0.016,0.001,102.0,110.0,100.0,13.4,1505.3,327.3,-0.7,1.9,2470.323,13.33,0.062,284.9
2020-08-06T03:31:03,42.805,6.029,-0.034,0.007,-0.005,103.0,108.0,101.0,13.4,1505.3,324.5,-0.7,1.9,2470.296,13.33,0.034,281.6
2020-08-06T03:34:03,42.805,6.029,-0.053,0.027,-0.013,103.0,109.0,101.0,13.3,1505.3,323.9,-0.7,1.8,2470.241,13.33,0.059,297.0
2020-08-06T03:37:02,42.805,6.029,-0.042,0.019,-0.017,103.0,110.0,100.0,13.4,1505.3,328.6,-0.7,1.9,2470.281,13.33,0.046,294.3
2020-08-06T03:40:02,42.805,6.029,-0.05,0.0,-0.021,104.0,108.0,100.0,13.3,1505.3,325.4,-0.8,1.8,2470.31,13.33,0.05,270.0
2020-08-06T03:43:03,42.805,6.029,-0.048,0.011,-0.011,103.0,107.0,101.0,13.3,1505.3,323.3,-0.7,1.9,2470.305,13.33,0.049,282.9
2020-08-06T03:46:02,42.805,6.029,-0.066,0.027,0.004,103.0,109.0,100.0,13.4,1505.3,326.4,-0.7,1.9,2470.293,13.33,0.071,292.2
2020-08-06T03:49:03,42.805,6.029,-0.065,0.02,-0.023,103.0,108.0,100.0,13.4,1505.3,324.0,-0.7,1.8,2470.263,13.33,0.068,287.1
2020-08-06T03:52:02,42.805,6.029,-0.034,0.015,0.004,103.0,107.0,101.0,13.4,1505.3,326.3,-0.7,1.9,2470.309,13.33,0.037,293.8
2020-08-06T03:55:03,42.805,6.029,-0.053,0.046,0.01,104.0,109.0,100.0,13.3,1505.3,324.5,-0.7,1.8,2470.297,13.33,0.07,311.0
2020-08-06T03:58:03,42.805,6.029,-0.032,0.029,0.019,104.0,107.0,100.0,13.3,1505.3,328.0,-0.7,1.8,2470.317,13.33,0.043,312.2
2020-08-06T04:04:02,42.805,6.029,-0.043,0.019,-0.005,103.0,108.0,100.0,13.3,1505.3,328.0,-0.7,1.8,2470.316,13.31,0.047,293.8
2020-08-06T04:07:02,42.805,6.029,-0.043,0.021,-0.025,102.0,108.0,101.0,13.3,1505.3,324.6,-0.7,1.8,2470.349,13.31,0.047,296.0
2020-08-06T04:10:02,42.805,6.029,-0.043,0.019,0.007,103.0,108.0,100.0,13.4,1505.3,324.5,-0.7,1.8,2470.319,13.32,0.047,293.8
2020-08-06T04:13:03,42.805,6.029,-0.032,0.019,-0.006,103.0,108.0,105.0,13.4,1505.3,324.2,-0.7,1.8,2470.308,13.32,0.037,300.7
2020-08-06T04:16:02,42.805,6.029,-0.038,0.006,-0.007,105.0,106.0,101.0,13.4,1505.3,326.7,-0.7,1.8,2470.288,13.32,0.038,279.0
2020-08-06T04:19:03,42.805,6.029,-0.076,0.021,-0.026,104.0,107.0,102.0,13.4,1505.3,328.0,-0.7,1.8,2470.315,13.32,0.078,285.4
2020-08-06T04:22:02,42.805,6.029,-0.049,0.015,0.016,104.0,107.0,102.0,13.4,1505.3,324.8,-0.7,1.8,2470.306,13.33,0.051,287.0
2020-08-06T04:25:03,42.805,6.029,-0.044,0.0,0.0,106.0,109.0,101.0,13.4,1505.3,324.2,-0.7,1.8,2470.349,13.33,0.044,270.0
2020-08-06T04:28:03,42.805,6.029,-0.031,0.001,0.009,104.0,111.0,100.0,13.4,1505.3,327.5,-0.7,1.8,2470.309,13.33,0.031,271.8
2020-08-06T04:31:03,42.805,6.029,-0.047,0.0,0.013,103.0,108.0,102.0,13.4,1505.3,323.6,-0.7,1.8,2470.313,13.33,0.047,270.0
2020-08-06T04:34:03,42.805,6.029,-0.049,-0.009,-0.013,103.0,111.0,101.0,13.4,1505.3,326.6,-0.7,1.8,2470.333,13.33,0.049,259.6
2020-08-06T04:37:02,42.805,6.029,-0.039,0.025,0.012,104.0,109.0,100.0,13.4,1505.3,328.7,-0.7,1.8,2470.294,13.33,0.046,302.7
2020-08-06T04:43:02,42.805,6.029,-0.049,0.006,-0.005,103.0,109.0,100.0,13.4,1505.3,326.9,-0.8,1.8,2470.385,13.31,0.049,277.0
2020-08-06T04:46:03,42.805,6.029,-0.046,0.0,-0.028,103.0,108.0,102.0,13.4,1505.3,325.2,-0.7,1.8,2470.344,13.31,0.046,270.0
2020-08-06T04:49:03,42.805,6.029,-0.069,0.023,0.005,104.0,109.0,101.0,13.4,1505.3,327.2,-0.7,1.8,2470.37,13.32,0.072,288.4
2020-08-06T04:52:02,42.805,6.029,-0.037,0.023,-0.006,104.0,109.0,101.0,13.4,1505.3,327.6,-0.7,1.8,2470.38,13.32,0.043,301.9
2020-08-06T04:55:02,42.805,6.029,-0.048,0.03,0.013,103.0,108.0,103.0,13.3,1505.3,328.1,-0.7,1.8,2470.344,13.32,0.056,302.0
2020-08-06T04:58:03,42.805,6.029,-0.051,0.005,-0.005,104.0,110.0,100.0,13.3,1505.3,324.9,-0.7,1.9,2470.33,13.32,0.051,275.6
2020-08-06T05:04:02,42.805,6.029,-0.032,-0.006,0.007,105.0,108.0,102.0,13.3,1505.3,327.2,-0.7,1.8,2470.378,13.31,0.032,259.4
2020-08-06T05:07:02,42.805,6.029,-0.058,0.01,-0.002,103.0,110.0,101.0,13.3,1505.3,326.5,-0.7,1.9,2470.374,13.31,0.058,279.8
2020-08-06T05:10:03,42.805,6.029,-0.04,0.013,-0.004,103.0,109.0,101.0,13.4,1505.3,324.2,-0.7,1.8,2470.38,13.32,0.042,288.0
2020-08-06T05:13:03,42.805,6.029,-0.045,0.013,0.0,105.0,108.0,101.0,13.4,1505.3,327.9,-0.7,1.9,2470.361,13.32,0.046,286.1
2020-08-06T05:16:03,42.805,6.029,-0.055,0.015,-0.022,105.0,109.0,101.0,13.4,1505.3,328.1,-0.7,1.8,2470.35,13.32,0.057,285.3
2020-08-06T05:19:03,42.805,6.029,-0.026,0.033,0.01,104.0,109.0,100.0,13.4,1505.3,327.8,-0.7,1.8,2470.361,13.32,0.042,321.8
2020-08-06T05:22:02,42.805,6.029,-0.069,0.03,0.012,103.0,109.0,101.0,13.3,1505.3,324.1,-0.7,1.8,2470.347,13.32,0.075,293.5
2020-08-06T05:25:03,42.805,6.029,-0.038,0.02,-0.006,103.0,110.0,101.0,13.4,1505.3,326.0,-0.7,1.8,2470.367,13.32,0.042,297.8
2020-08-06T05:28:03,42.805,6.029,-0.031,0.012,0.006,104.0,109.0,100.0,13.4,1505.3,326.9,-0.7,1.8,2470.355,13.33,0.033,291.2
2020-08-06T05:31:03,42.805,6.029,-0.058,0.017,0.003,102.0,108.0,102.0,13.3,1505.3,326.8,-0.7,1.9,2470.332,13.33,0.06,286.3
2020-08-06T05:34:03,42.805,6.029,-0.024,0.015,-0.002,102.0,109.0,101.0,13.3,1505.3,325.2,-0.7,1.9,2470.358,13.33,0.028,302.0
2020-08-06T05:37:02,42.805,6.029,-0.062,0.011,0.013,103.0,111.0,100.0,13.4,1505.3,326.3,-0.7,1.8,2470.368,13.33,0.062,280.1
2020-08-06T05:40:03,42.805,6.029,-0.041,0.014,-0.017,102.0,110.0,100.0,13.4,1505.3,325.2,-0.7,1.8,2470.338,13.33,0.043,288.9
2020-08-06T05:43:03,42.805,6.029,-0.04,0.018,0.01,105.0,109.0,100.0,13.4,1505.3,322.8,-0.7,1.8,2470.381,13.33,0.043,294.2
2020-08-06T05:46:03,42.805,6.029,-0.048,-0.001,-0.017,105.0,108.0,100.0,13.4,1505.3,326.2,-0.7,1.8,2470.319,13.33,0.048,268.8
2020-08-06T05:49:03,42.805,6.029,-0.039,0.014,-0.026,103.0,108.0,101.0,13.3,1505.3,324.7,-0.7,1.8,2470.349,13.33,0.041,289.7
2020-08-06T05:52:02,42.805,6.029,-0.073,0.016,-0.02,102.0,108.0,101.0,13.4,1505.3,323.1,-0.7,1.8,2470.382,13.33,0.074,282.4
2020-08-06T05:55:03,42.805,6.029,-0.045,0.017,0.003,104.0,108.0,102.0,13.4,1505.3,324.0,-0.7,1.8,2470.359,13.33,0.048,290.7
2020-08-06T05:58:03,42.805,6.029,-0.032,0.0,-0.03,103.0,107.0,101.0,13.3,1505.3,325.1,-0.7,1.8,2470.361,13.33,0.032,270.0
2020-08-06T06:04:02,42.805,6.029,-0.036,0.023,0.016,103.0,106.0,101.0,13.4,1505.3,324.2,-0.7,1.8,2470.432,13.31,0.042,302.6
2020-08-06T06:07:02,42.805,6.029,-0.037,0.031,0.022,102.0,109.0,101.0,13.3,1505.3,324.1,-0.7,1.8,2470.398,13.31,0.048,310.0
2020-08-06T06:10:02,42.805,6.029,-0.032,0.025,0.023,103.0,109.0,100.0,13.3,1505.3,326.0,-0.7,1.8,2470.398,13.32,0.04,308.0
2020-08-06T06:13:03,42.805,6.029,-0.024,0.029,0.021,102.0,109.0,101.0,13.3,1505.3,325.3,-0.7,1.8,2470.394,13.32,0.037,320.4
2020-08-06T06:16:03,42.805,6.029,-0.043,0.017,0.008,103.0,109.0,100.0,13.3,1505.3,326.9,-0.7,1.8,2470.355,13.32,0.046,291.6
2020-08-06T06:19:03,42.805,6.029,-0.047,-0.001,0.006,104.0,108.0,101.0,13.4,1505.3,324.2,-0.7,1.9,2470.376,13.32,0.047,268.8
2020-08-06T06:22:02,42.805,6.029,-0.045,0.015,-0.006,104.0,108.0,102.0,13.3,1505.3,325.7,-0.7,1.9,2470.374,13.33,0.047,288.4
2020-08-06T06:25:02,42.805,6.029,-0.045,-0.013,-0.006,102.0,108.0,102.0,13.4,1505.3,323.3,-0.7,1.8,2470.366,13.33,0.046,253.9
2020-08-06T06:28:03,42.805,6.029,-0.043,0.012,-0.022,104.0,106.0,101.0,13.4,1505.3,324.5,-0.7,1.8,2470.374,13.33,0.044,285.6
2020-08-06T06:31:03,42.805,6.029,-0.043,0.007,-0.005,103.0,108.0,101.0,13.4,1505.3,328.4,-0.7,1.8,2470.381,13.33,0.043,279.2
2020-08-06T06:34:03,42.805,6.029,-0.055,-0.01,0.001,101.0,110.0,100.0,13.4,1505.3,324.1,-0.7,1.8,2470.409,13.33,0.055,259.7
2020-08-06T06:37:02,42.805,6.029,-0.076,0.022,-0.045,103.0,109.0,100.0,13.4,1505.3,326.1,-0.7,1.8,2470.424,13.33,0.079,286.1
2020-08-06T06:40:03,42.805,6.029,-0.058,-0.001,0.002,105.0,107.0,101.0,13.4,1505.3,324.0,-0.7,1.8,2470.401,13.33,0.058,269.0
2020-08-06T06:43:03,42.805,6.029,-0.024,0.024,0.012,104.0,106.0,100.0,13.3,1505.3,325.2,-0.7,1.8,2470.391,13.33,0.033,315.0
2020-08-06T06:46:03,42.805,6.029,-0.05,0.005,-0.021,103.0,109.0,101.0,13.4,1505.3,327.8,-0.7,1.8,2470.394,13.33,0.05,275.7
2020-08-06T06:49:03,42.805,6.029,-0.045,0.017,-0.002,103.0,109.0,100.0,13.4,1505.3,322.8,-0.7,1.8,2470.394,13.33,0.048,290.7
2020-08-06T06:52:02,42.805,6.029,-0.04,0.008,-0.03,104.0,108.0,100.0,13.3,1505.3,323.7,-0.7,1.9,2470.367,13.33,0.04,281.3
2020-08-06T06:55:03,42.805,6.029,-0.039,0.003,0.023,104.0,107.0,100.0,13.4,1505.3,326.8,-0.7,1.8,2470.375,13.33,0.039,274.4
2020-08-06T06:58:03,42.805,6.029,-0.044,0.019,0.026,103.0,109.0,101.0,13.3,1505.3,324.3,-0.7,1.8,2470.389,13.33,0.047,293.4
2020-08-06T07:04:02,42.805,6.029,-0.04,0.023,0.001,103.0,110.0,100.0,13.4,1505.3,323.8,-0.7,1.8,2470.47,13.31,0.046,299.9
2020-08-06T07:07:02,42.805,6.029,-0.04,0.006,0.011,103.0,108.0,101.0,13.3,1505.3,325.0,-0.7,1.8,2470.434,13.31,0.04,278.5
2020-08-06T07:10:03,42.805,6.029,-0.036,0.016,0.001,102.0,109.0,100.0,13.3,1505.3,326.1,-0.7,1.8,2470.423,13.32,0.039,294.0
2020-08-06T07:13:03,42.805,6.029,-0.041,0.007,0.018,103.0,107.0,100.0,13.4,1505.3,323.6,-0.7,1.8,2470.45,13.32,0.041,279.7
2020-08-06T07:16:03,42.805,6.029,-0.03,0.015,-0.01,104.0,109.0,100.0,13.4,1505.3,325.4,-0.7,1.8,2470.447,13.32,0.033,296.6
2020-08-06T07:19:03,42.805,6.029,-0.043,0.007,0.024,103.0,108.0,101.0,13.4,1505.3,323.7,-0.7,1.8,2470.427,13.33,0.043,279.2
2020-08-06T07:22:02,42.805,6.029,-0.069,0.016,-0.049,104.0,109.0,101.0,13.4,1505.3,323.6,-0.7,1.8,2470.413,13.33,0.07,283.1
2020-08-06T07:25:03,42.805,6.029,-0.064,0.003,-0.018,102.0,108.0,101.0,13.4,1505.3,328.2,-0.7,1.8,2470.446,13.33,0.064,272.7
2020-08-06T07:28:03,42.805,6.029,-0.069,0.016,-0.008,104.0,109.0,101.0,13.4,1505.3,326.6,-0.7,1.8,2470.454,13.33,0.07,283.1
2020-08-06T07:31:03,42.805,6.029,-0.051,0.017,-0.028,103.0,111.0,100.0,13.3,1505.3,323.3,-0.7,1.8,2470.462,13.33,0.053,288.4
2020-08-06T07:34:03,42.805,6.029,-0.06,0.018,0.002,103.0,110.0,100.0,13.4,1505.3,326.5,-0.7,1.8,2470.433,13.33,0.062,286.7
2020-08-06T07:37:02,42.805,6.029,-0.049,0.011,0.012,103.0,108.0,101.0,13.3,1505.3,324.6,-0.7,1.8,2470.381,13.33,0.05,282.7
2020-08-06T07:40:03,42.805,6.029,-0.083,0.016,-0.004,105.0,107.0,99.0,13.4,1505.3,323.3,-0.7,1.8,2470.418,13.33,0.084,280.9
2020-08-06T07:43:03,42.805,6.029,-0.063,0.016,-0.013,103.0,111.0,100.0,13.3,1505.3,324.8,-0.7,1.8,2470.44,13.33,0.064,284.2
2020-08-06T07:46:03,42.805,6.029,-0.032,-0.006,0.005,105.0,108.0,101.0,13.3,1505.3,323.1,-0.7,1.8,2470.465,13.33,0.032,259.4
2020-08-06T07:49:03,42.805,6.029,-0.034,0.013,-0.002,104.0,108.0,100.0,13.4,1505.3,326.5,-0.7,1.8,2470.401,13.33,0.036,290.9
2020-08-06T07:52:03,42.805,6.029,-0.039,0.011,0.011,104.0,109.0,100.0,13.3,1505.3,325.9,-0.7,1.8,2470.455,13.33,0.04,285.7
2020-08-06T07:55:03,42.805,6.029,-0.026,0.024,0.001,104.0,109.0,100.0,13.4,1505.3,323.0,-0.7,1.8,2470.435,13.33,0.035,312.7
2020-08-06T07:58:03,42.805,6.029,-0.035,0.015,-0.005,104.0,108.0,100.0,13.4,1505.3,324.0,-0.7,1.8,2470.452,13.33,0.038,293.2
2020-08-06T08:04:02,42.805,6.029,-0.025,0.031,-0.001,103.0,109.0,101.0,13.4,1505.3,326.0,-0.7,1.8,2470.504,13.31,0.039,321.1
2020-08-06T08:07:02,42.805,6.029,-0.049,0.016,-0.019,105.0,106.0,101.0,13.4,1505.3,326.7,-0.7,1.8,2470.484,13.31,0.051,288.1
2020-08-06T08:10:03,42.805,6.029,-0.028,0.003,-0.001,103.0,109.0,100.0,13.4,1505.3,322.7,-0.7,1.8,2470.498,13.32,0.028,276.1
2020-08-06T08:13:03,42.805,6.029,-0.033,0.013,0.009,101.0,110.0,101.0,13.4,1505.3,325.4,-0.7,1.8,2470.487,13.32,0.035,291.5
2020-08-06T08:16:03,42.805,6.029,-0.043,0.013,0.007,102.0,110.0,101.0,13.4,1505.3,326.5,-0.7,1.8,2470.436,13.32,0.044,286.8
2020-08-06T08:19:03,42.805,6.029,-0.037,0.016,0.007,102.0,109.0,100.0,13.4,1505.3,325.9,-0.7,1.9,2470.459,13.33,0.04,293.4
2020-08-06T08:22:03,42.805,6.029,-0.035,0.018,0.016,104.0,109.0,102.0,13.3,1505.3,326.1,-0.7,1.8,2470.448,13.33,0.039,297.2
2020-08-06T08:25:03,42.805,6.029,-0.034,0.009,0.01,102.0,109.0,100.0,13.4,1505.3,324.2,-0.7,1.8,2470.456,13.33,0.035,284.8
2020-08-06T08:28:03,42.805,6.029,-0.042,-0.006,-0.01,102.0,108.0,102.0,13.3,1505.3,325.6,-0.7,1.8,2470.444,13.33,0.042,261.9
2020-08-06T08:31:03,42.805,6.029,-0.048,0.012,-0.02,103.0,108.0,101.0,13.4,1505.3,325.9,-0.7,1.8,2470.416,13.33,0.049,284.0
2020-08-06T08:34:03,42.805,6.029,-0.02,0.008,0.014,103.0,108.0,101.0,13.3,1505.3,326.7,-0.7,1.8,2470.457,13.33,0.021,291.8
2020-08-06T08:37:02,42.805,6.029,-0.015,0.003,-0.007,103.0,108.0,101.0,13.4,1505.3,327.6,-0.7,1.8,2470.457,13.33,0.015,281.3
2020-08-06T08:40:02,42.805,6.029,-0.035,0.022,-0.009,104.0,108.0,101.0,13.3,1505.3,326.9,-0.7,1.8,2470.45,13.33,0.041,302.2
2020-08-06T08:43:03,42.805,6.029,-0.041,-0.018,-0.031,103.0,109.0,101.0,13.3,1505.3,326.5,-0.7,1.8,2470.414,13.33,0.044,246.3
2020-08-06T08:46:03,42.805,6.029,-0.029,0.018,0.025,103.0,107.0,101.0,13.4,1505.3,324.5,-0.7,1.8,2470.453,13.33,0.034,301.8
2020-08-06T08:49:02,42.805,6.029,-0.05,0.025,0.015,102.0,109.0,100.0,13.4,1505.3,324.7,-0.7,1.8,2470.408,13.33,0.055,296.6
2020-08-06T08:52:03,42.805,6.029,-0.022,0.011,0.036,104.0,110.0,100.0,13.4,1505.3,326.5,-0.7,1.9,2470.454,13.33,0.024,296.6
2020-08-06T08:55:02,42.805,6.029,-0.038,0.012,-0.035,101.0,108.0,101.0,13.3,1505.3,327.0,-0.7,1.8,2470.447,13.33,0.039,287.5
2020-08-06T08:58:03,42.805,6.029,-0.044,0.0,0.005,103.0,108.0,100.0,13.3,1505.3,325.0,-0.7,1.8,2470.44,13.33,0.044,270.0
2020-08-06T09:04:02,42.805,6.029,-0.039,0.002,0.003,104.0,107.0,100.0,13.4,1505.3,323.9,-0.7,1.8,2470.491,13.31,0.039,272.9
2020-08-06T09:07:02,42.805,6.029,-0.056,0.024,0.0,102.0,107.0,101.0,13.3,1505.3,323.8,-0.7,1.8,2470.43,13.31,0.06,293.2
2020-08-06T09:10:03,42.805,6.029,-0.043,-0.003,-0.022,101.0,109.0,101.0,13.3,1505.3,326.4,-0.7,1.8,2470.479,13.32,0.043,266.0
2020-08-06T09:13:03,42.805,6.029,-0.054,0.0,-0.002,103.0,109.0,100.0,13.4,1505.3,326.3,-0.7,1.8,2470.443,13.32,0.053,270.0
2020-08-06T09:16:03,42.805,6.029,-0.05,0.009,-0.033,102.0,109.0,101.0,13.4,1505.3,328.3,-0.7,1.8,2470.42,13.32,0.05,280.2
2020-08-06T09:19:03,42.805,6.029,-0.051,0.021,0.006,104.0,108.0,101.0,13.4,1505.3,326.8,-0.7,1.8,2470.427,13.32,0.055,292.4
2020-08-06T09:22:03,42.805,6.029,-0.007,0.012,0.036,103.0,107.0,100.0,13.3,1505.3,325.3,-0.7,1.8,2470.452,13.32,0.013,329.7
2020-08-06T09:25:03,42.805,6.029,-0.028,0.018,0.027,102.0,108.0,101.0,13.3,1505.3,323.2,-0.7,1.9,2470.449,13.33,0.033,302.7
2020-08-06T09:28:03,42.805,6.029,-0.024,0.005,0.009,102.0,111.0,101.0,13.3,1505.3,326.4,-0.7,1.8,2470.425,13.33,0.024,281.8
2020-08-06T09:31:03,42.805,6.029,-0.056,0.009,-0.034,102.0,109.0,101.0,13.3,1505.3,324.5,-0.7,1.9,2470.436,13.33,0.056,279.1
2020-08-06T09:34:03,42.805,6.029,-0.034,0.009,0.007,103.0,108.0,100.0,13.3,1505.3,325.8,-0.7,1.8,2470.423,13.33,0.035,284.8
2020-08-06T09:37:02,42.805,6.029,-0.024,0.0,0.001,104.0,108.0,99.0,13.4,1505.3,327.6,-0.7,1.9,2470.399,13.33,0.024,270.0
2020-08-06T09:40:03,42.805,6.029,-0.003,0.022,0.035,104.0,107.0,101.0,13.4,1505.3,324.7,-0.7,1.8,2470.364,13.33,0.022,352.2
2020-08-06T09:43:03,42.805,6.029,-0.038,0.032,-0.021,104.0,111.0,101.0,13.4,1505.3,326.3,-0.7,1.8,2470.399,13.33,0.049,310.1
2020-08-06T09:46:03,42.805,6.029,-0.062,0.012,0.004,103.0,108.0,101.0,13.4,1505.3,326.3,-0.7,1.8,2470.399,13.33,0.063,281.0
2020-08-06T09:49:03,42.805,6.029,-0.037,0.015,0.013,103.0,108.0,100.0,13.4,1505.3,325.2,-0.7,1.8,2470.418,13.33,0.039,292.1
2020-08-06T09:52:02,42.805,6.029,-0.038,0.013,-0.038,103.0,108.0,101.0,13.3,1505.3,328.3,-0.7,1.9,2470.413,13.33,0.04,288.9
2020-08-06T09:55:03,42.805,6.029,-0.03,0.016,0.015,103.0,108.0,100.0,13.3,1505.3,323.5,-0.7,1.8,2470.429,13.33,0.034,298.1
2020-08-06T09:58:03,42.805,6.029,-0.035,0.011,-0.016,104.0,106.0,100.0,13.4,1505.3,323.8,-0.7,1.8,2470.401,13.33,0.036,287.4